TimeMST,TemperatureF,Dew PointF,Humidity,Sea Level PressureIn,VisibilityMPH,Wind Direction,Wind SpeedMPH,Gust SpeedMPH,PrecipitationIn,Events,Conditions,WindDirDegrees,DateUTC
12:52 AM,18.0,14.0,84,29.70,10.0,West,6.9,-,N/A,,Clear,260,2013-02-24 07:52:00
1:52 AM,15.1,12.9,91,29.71,10.0,WNW,6.9,-,N/A,,Clear,300,2013-02-24 08:52:00
2:49 AM,10.4,8.6,92,29.63,10.0,SSW,4.6,-,N/A,,Scattered Clouds,210,2013-02-24 09:49:00
2:52 AM,10.0,8.1,92,29.73,10.0,South,6.9,-,N/A,,Mostly Cloudy,190,2013-02-24 09:52:00
3:24 AM,10.4,8.6,92,29.63,10.0,West,5.8,-,N/A,,Partly Cloudy,270,2013-02-24 10:24:00
3:42 AM,10.4,8.6,92,29.65,2.5,SW,4.6,-,N/A,,Mostly Cloudy,230,2013-02-24 10:42:00
3:48 AM,12.2,8.6,85,29.65,0.8,West,6.9,-,N/A,,Mist,260,2013-02-24 10:48:00
3:52 AM,12.0,10.0,92,29.72,0.5,West,8.1,-,N/A,Fog,Light Freezing Fog,270,2013-02-24 10:52:00
4:04 AM,12.2,12.2,100,29.64,2.5,SSW,4.6,-,N/A,,Overcast,200,2013-02-24 11:04:00
4:11 AM,12.2,10.4,92,29.65,3.0,Variable,3.5,-,N/A,,Overcast,0,2013-02-24 11:11:00
4:16 AM,12.2,8.6,85,29.65,1.8,Calm,Calm,-,N/A,,Overcast,0,2013-02-24 11:16:00
4:29 AM,12.2,10.4,92,29.65,0.5,NW,3.5,-,N/A,Fog,Light Freezing Fog,320,2013-02-24 11:29:00
4:52 AM,10.0,8.1,92,29.73,1.0,Calm,Calm,-,N/A,,Mostly Cloudy,0,2013-02-24 11:52:00
4:59 AM,10.4,6.8,85,29.63,1.5,SE,3.5,-,N/A,,Mostly Cloudy,130,2013-02-24 11:59:00
5:04 AM,10.4,8.6,92,29.63,3.0,SE,5.8,-,N/A,,Scattered Clouds,140,2013-02-24 12:04:00
5:52 AM,10.0,6.1,84,29.77,10.0,SSW,8.1,-,N/A,,Clear,200,2013-02-24 12:52:00
6:52 AM,12.9,8.1,81,29.80,10.0,SW,11.5,-,N/A,,Clear,220,2013-02-24 13:52:00
7:52 AM,10.9,7.0,84,29.84,10.0,WSW,8.1,-,N/A,,Clear,250,2013-02-24 14:52:00
8:22 AM,10.4,6.8,85,29.70,10.0,North,5.8,-,N/A,,Scattered Clouds,360,2013-02-24 15:22:00
8:27 AM,12.2,10.4,92,29.69,7.0,NNW,5.8,-,N/A,,Mostly Cloudy,340,2013-02-24 15:27:00
8:52 AM,18.0,15.1,88,29.83,10.0,North,4.6,-,N/A,,Mostly Cloudy,360,2013-02-24 15:52:00
9:08 AM,19.4,15.8,86,29.69,10.0,NNW,8.1,-,N/A,,Mostly Cloudy,340,2013-02-24 16:08:00
9:31 AM,21.2,15.8,80,29.69,10.0,North,9.2,-,N/A,,Mostly Cloudy,350,2013-02-24 16:31:00
9:41 AM,23.0,15.8,74,29.69,10.0,North,8.1,-,N/A,,Scattered Clouds,10,2013-02-24 16:41:00
9:52 AM,24.1,14.0,65,29.76,10.0,North,11.5,-,N/A,,Partly Cloudy,360,2013-02-24 16:52:00
10:52 AM,26.1,14.0,60,29.74,10.0,Variable,3.5,-,N/A,,Partly Cloudy,0,2013-02-24 17:52:00
11:52 AM,28.9,9.0,43,29.73,10.0,SE,5.8,-,N/A,,Partly Cloudy,140,2013-02-24 18:52:00
12:52 PM,32.0,8.1,37,29.70,10.0,West,6.9,-,N/A,,Clear,260,2013-02-24 19:52:00
1:52 PM,34.0,10.9,38,29.69,10.0,NW,5.8,17.3,N/A,,Mostly Cloudy,310,2013-02-24 20:52:00
2:52 PM,30.0,12.9,49,29.77,8.0,NNE,13.8,18.4,N/A,,Overcast,30,2013-02-24 21:52:00
3:52 PM,28.9,15.1,56,29.78,10.0,NW,8.1,-,0.00,,Overcast,320,2013-02-24 22:52:00
4:52 PM,25.0,18.0,75,29.85,10.0,East,10.4,26.5,0.00,,Overcast,80,2013-02-24 23:52:00
5:52 PM,23.0,15.1,72,29.89,10.0,Variable,6.9,-,N/A,,Overcast,0,2013-02-25 00:52:00
6:52 PM,21.9,10.9,63,29.92,10.0,Calm,Calm,-,N/A,,Partly Cloudy,0,2013-02-25 01:52:00
7:52 PM,21.9,6.1,51,29.95,10.0,NNE,16.1,21.9,N/A,,Clear,30,2013-02-25 02:52:00
8:52 PM,21.0,5.0,50,29.95,10.0,North,15.0,-,N/A,,Clear,360,2013-02-25 03:52:00
9:52 PM,21.0,3.9,48,29.94,10.0,NNE,15.0,24.2,N/A,,Clear,20,2013-02-25 04:52:00
10:52 PM,19.9,3.9,50,29.95,10.0,North,16.1,25.3,N/A,,Clear,350,2013-02-25 05:52:00
11:52 PM,19.9,3.9,50,29.94,10.0,NNW,11.5,-,N/A,,Clear,340,2013-02-25 06:52:00